• în România
  • Lista ţărilor
  • Pe 7 zile
  • Temperatura apei
  • Hartă satelitară
  • Meteo pe hartă
  • Widget-uri
  • user-avatar
    Intrare

    Meteo pe oră la Midlothian

    Astăzi, 18 Februarie, Duminică

    Timp Temperatura Precipitaţii Vânt Presiune Umiditate
    00:00 0°C° 0 mm 3 m/s 739 mmHg 95%
    01:00 0°C° 0 mm 3 m/s 739 mmHg 95%
    02:00 -1°C° 0 mm 3 m/s 739 mmHg 95%
    03:00 -1°C° 0 mm 2 m/s 739 mmHg 95%
    04:00 -1°C° 0 mm 2 m/s 739 mmHg 95%
    05:00 -1°C° 0 mm 2 m/s 739 mmHg 95%
    06:00 +1°C° 0 mm 1 m/s 739 mmHg 94%
    07:00 -1°C° 0 mm 2 m/s 739 mmHg 93%
    08:00 +1°C° 0 mm 2 m/s 739 mmHg 92%
    09:00 +2°C° 0 mm 2 m/s 739 mmHg 91%
    10:00 +3°C° 0 mm 2 m/s 739 mmHg 88%
    11:00 +4°C° 0 mm 2 m/s 739 mmHg 85%
    12:00 +5°C° 0 mm 2 m/s 739 mmHg 82%
    13:00 +5°C° 0 mm 2 m/s 739 mmHg 83%
    14:00 +5°C° 0 mm 2 m/s 738 mmHg 85%
    15:00 +5°C° 0 mm 3 m/s 738 mmHg 86%
    16:00 +4°C° 0,2 mm 3 m/s 738 mmHg 89%
    17:00 +3°C° 0,2 mm 3 m/s 737 mmHg 92%
    18:00 +3°C° 0,2 mm 3 m/s 737 mmHg 95%
    19:00 +3°C° 0,4 mm 3 m/s 737 mmHg 95%
    20:00 +3°C° 0,4 mm 3 m/s 737 mmHg 95%
    21:00 +3°C° 0,4 mm 3 m/s 736 mmHg 96%
    22:00 +3°C° 0,3 mm 3 m/s 736 mmHg 96%
    23:00 +3°C° 0,3 mm 3 m/s 736 mmHg 96%

    Mâine, 19 Februarie, Luni

    Timp Temperatura Precipitaţii Vânt Presiune Umiditate
    00:00 +3°C° 0,3 mm 3 m/s 736 mmHg 97%
    01:00 +5°C° 0,2 mm 2 m/s 736 mmHg 97%
    02:00 +5°C° 0,2 mm 2 m/s 736 mmHg 97%
    03:00 +5°C° 0,2 mm 2 m/s 736 mmHg 97%
    04:00 +6°C° 0,3 mm 2 m/s 736 mmHg 97%
    05:00 +6°C° 0,3 mm 2 m/s 736 mmHg 96%
    06:00 +5°C° 0,3 mm 3 m/s 736 mmHg 96%
    07:00 +5°C° 0,2 mm 3 m/s 736 mmHg 96%
    08:00 +7°C° 0,2 mm 3 m/s 736 mmHg 95%
    09:00 +7°C° 0,2 mm 3 m/s 736 mmHg 95%
    10:00 +7°C° 0,2 mm 3 m/s 737 mmHg 94%
    11:00 +8°C° 0,2 mm 3 m/s 737 mmHg 92%
    12:00 +8°C° 0,2 mm 3 m/s 737 mmHg 91%
    13:00 +8°C° 0,1 mm 3 m/s 737 mmHg 89%
    14:00 +9°C° 0,1 mm 3 m/s 737 mmHg 88%
    15:00 +9°C° 0,1 mm 3 m/s 737 mmHg 86%
    16:00 +8°C° 0 mm 3 m/s 737 mmHg 89%
    17:00 +7°C° 0 mm 3 m/s 738 mmHg 92%
    18:00 +6°C° 0 mm 2 m/s 738 mmHg 94%
    19:00 +6°C° 0 mm 2 m/s 738 mmHg 95%
    20:00 +5°C° 0 mm 2 m/s 738 mmHg 95%
    21:00 +5°C° 0 mm 2 m/s 738 mmHg 96%
    22:00 +4°C° 0,1 mm 3 m/s 738 mmHg 94%
    23:00 +4°C° 0,1 mm 4 m/s 738 mmHg 92%

    Poimâine, 20 Februarie, Marţi

    Timp Temperatura Precipitaţii Vânt Presiune Umiditate
    00:00 +4°C° 0,1 mm 4 m/s 738 mmHg 91%
    01:00 +3°C° 0,9 mm 5 m/s 739 mmHg 89%
    02:00 +2°C° 0,9 mm 6 m/s 739 mmHg 87%
    03:00 +2°C° 0,9 mm 7 m/s 739 mmHg 85%
    04:00 +2°C° 0,4 mm 6 m/s 740 mmHg 85%
    05:00 +2°C° 0,4 mm 6 m/s 740 mmHg 86%
    06:00 +1°C° 0,4 mm 5 m/s 741 mmHg 87%
    07:00 +1°C° 0 mm 5 m/s 742 mmHg 86%
    08:00 +1°C° 0 mm 5 m/s 742 mmHg 85%
    09:00 +1°C° 0 mm 5 m/s 743 mmHg 84%
    10:00 +2°C° 0 mm 5 m/s 744 mmHg 80%
    11:00 +3°C° 0 mm 5 m/s 744 mmHg 75%
    12:00 +4°C° 0 mm 6 m/s 745 mmHg 70%
    13:00 +5°C° 0 mm 5 m/s 745 mmHg 69%
    14:00 +6°C° 0 mm 5 m/s 746 mmHg 68%
    15:00 +6°C° 0 mm 4 m/s 746 mmHg 68%
    16:00 +4°C° 0 mm 4 m/s 746 mmHg 73%
    17:00 +3°C° 0 mm 3 m/s 747 mmHg 79%
    18:00 +2°C° 0 mm 3 m/s 747 mmHg 85%
    19:00 +1°C° 0 mm 3 m/s 748 mmHg 86%
    20:00 +1°C° 0 mm 3 m/s 748 mmHg 88%
    21:00 +1°C° 0 mm 2 m/s 748 mmHg 89%
    22:00 +1°C° 0 mm 2 m/s 749 mmHg 89%
    23:00 +1°C° 0 mm 2 m/s 749 mmHg 90%

    21 Februarie, Miercuri

    Timp Temperatura Precipitaţii Vânt Presiune Umiditate
    00:00 +1°C° 0 mm 2 m/s 749 mmHg 90%
    01:00 -1°C° 0 mm 2 m/s 749 mmHg 90%
    02:00 -1°C° 0 mm 2 m/s 749 mmHg 90%
    03:00 -1°C° 0 mm 2 m/s 749 mmHg 90%
    04:00 -1°C° 0 mm 2 m/s 749 mmHg 90%
    05:00 -1°C° 0 mm 2 m/s 749 mmHg 89%
    06:00 -1°C° 0 mm 2 m/s 749 mmHg 89%
    07:00 -1°C° 0 mm 2 m/s 749 mmHg 86%
    08:00 +2°C° 0 mm 1 m/s 749 mmHg 83%
    09:00 +3°C° 0 mm 1 m/s 749 mmHg 80%
    10:00 +4°C° 0 mm 1 m/s 749 mmHg 75%
    11:00 +5°C° 0 mm 1 m/s 749 mmHg 70%
    12:00 +6°C° 0 mm 1 m/s 749 mmHg 65%
    13:00 +6°C° 0 mm 1 m/s 749 mmHg 65%
    14:00 +6°C° 0 mm 1 m/s 748 mmHg 65%
    15:00 +6°C° 0 mm 1 m/s 748 mmHg 65%
    16:00 +5°C° 0 mm 1 m/s 748 mmHg 72%
    17:00 +3°C° 0 mm 1 m/s 748 mmHg 79%
    18:00 +2°C° 0 mm 1 m/s 748 mmHg 87%
    19:00 +2°C° 0 mm 1 m/s 748 mmHg 88%
    20:00 +1°C° 0 mm 1 m/s 748 mmHg 90%
    21:00 +1°C° 0 mm 1 m/s 748 mmHg 91%
    22:00 +1°C° 0 mm 1 m/s 748 mmHg 92%
    23:00 +1°C° 0 mm 1 m/s 748 mmHg 92%

    22 Februarie, Joi

    Timp Temperatura Precipitaţii Vânt Presiune Umiditate
    00:00 +1°C° 0 mm 1 m/s 748 mmHg 92%
    01:00 0°C° 0 mm 1 m/s 747 mmHg 92%
    02:00 0°C° 0 mm 1 m/s 747 mmHg 92%
    03:00 0°C° 0 mm 1 m/s 747 mmHg 92%
    04:00 0°C° 0 mm 1 m/s 747 mmHg 93%
    05:00 0°C° 0 mm 1 m/s 747 mmHg 93%
    06:00 0°C° 0 mm 1 m/s 746 mmHg 94%
    07:00 +1°C° 0 mm 1 m/s 746 mmHg 92%
    08:00 -1°C° 0 mm 2 m/s 746 mmHg 89%
    09:00 +1°C° 0 mm 2 m/s 746 mmHg 87%
    10:00 +2°C° 0 mm 2 m/s 746 mmHg 81%
    11:00 +2°C° 0 mm 3 m/s 746 mmHg 74%
    12:00 +3°C° 0 mm 3 m/s 746 mmHg 68%
    13:00 +3°C° 0 mm 3 m/s 746 mmHg 67%
    14:00 +3°C° 0 mm 3 m/s 746 mmHg 66%
    15:00 +4°C° 0 mm 3 m/s 746 mmHg 65%
    16:00 +2°C° 0 mm 3 m/s 745 mmHg 72%
    17:00 +1°C° 0 mm 3 m/s 745 mmHg 79%
    18:00 -1°C° 0 mm 3 m/s 745 mmHg 85%
    19:00 -1°C° 0 mm 3 m/s 745 mmHg 87%
    20:00 -1°C° 0 mm 3 m/s 745 mmHg 89%
    21:00 -3°C° 0 mm 4 m/s 745 mmHg 90%
    22:00 -2°C° 0 mm 3 m/s 745 mmHg 91%
    23:00 -2°C° 0 mm 3 m/s 745 mmHg 91%

    23 Februarie, Vineri

    Timp Temperatura Precipitaţii Vânt Presiune Umiditate
    00:00 -2°C° 0 mm 3 m/s 745 mmHg 92%
    01:00 -4°C° 0 mm 3 m/s 745 mmHg 92%
    02:00 -4°C° 0 mm 3 m/s 745 mmHg 92%
    03:00 -3°C° 0 mm 2 m/s 745 mmHg 92%
    04:00 -3°C° 0 mm 2 m/s 744 mmHg 91%
    05:00 -3°C° 0 mm 2 m/s 744 mmHg 91%
    06:00 -3°C° 0 mm 2 m/s 744 mmHg 90%
    07:00 -2°C° 0 mm 2 m/s 745 mmHg 86%
    08:00 -1°C° 0 mm 2 m/s 745 mmHg 82%
    09:00 -1°C° 0 mm 2 m/s 745 mmHg 78%
    10:00 +2°C° 0 mm 2 m/s 745 mmHg 73%
    11:00 +2°C° 0 mm 3 m/s 746 mmHg 68%
    12:00 +3°C° 0 mm 3 m/s 746 mmHg 63%
    13:00 +3°C° 0 mm 3 m/s 746 mmHg 63%
    14:00 +3°C° 0 mm 3 m/s 745 mmHg 63%
    15:00 +3°C° 0 mm 4 m/s 745 mmHg 63%
    16:00 +1°C° 0 mm 4 m/s 745 mmHg 70%
    17:00 -1°C° 0 mm 4 m/s 746 mmHg 78%
    18:00 -2°C° 0 mm 4 m/s 746 mmHg 85%
    19:00 -3°C° 0 mm 4 m/s 746 mmHg 87%
    20:00 -3°C° 0 mm 4 m/s 746 mmHg 89%
    21:00 -4°C° 0 mm 3 m/s 746 mmHg 91%
    22:00 -4°C° 0 mm 3 m/s 747 mmHg 90%
    23:00 -4°C° 0 mm 3 m/s 747 mmHg 89%
    Arată mai mult